owner,sensor,date,latitude,longitude,relative_humidity,qcFlag 
DISL,ioos:station:DISL:MBLA:1,2014-05-01T00:00:00Z,30.4367,-88.0117,56.82,1111122 
DISL,ioos:station:DISL:MBLA:1,2014-05-01T00:30:00Z,30.4367,-88.0117,52.89,1111122 
DISL,ioos:station:DISL:MBLA:1,2014-05-01T01:00:00Z,30.4367,-88.0117,52.65,1111122 
DISL,ioos:station:DISL:MBLA:1,2014-05-01T01:30:00Z,30.4367,-88.0117,51.2,1111122 
DISL,ioos:station:DISL:MBLA:1,2014-05-01T02:00:00Z,30.4367,-88.0117,49.98,1111122 
DISL,ioos:station:DISL:MBLA:1,2014-05-01T02:30:00Z,30.4367,-88.0117,51.14,1111122 
DISL,ioos:station:DISL:MBLA:1,2014-05-01T03:00:00Z,30.4367,-88.0117,59.82,1111122 
DISL,ioos:station:DISL:MBLA:1,2014-05-01T03:30:00Z,30.4367,-88.0117,58.63,1111122 
DISL,ioos:station:DISL:MBLA:1,2014-05-01T04:00:00Z,30.4367,-88.0117,58.87,1111122 
DISL,ioos:station:DISL:MBLA:1,2014-05-01T04:30:00Z,30.4367,-88.0117,62.19,1111122 
DISL,ioos:station:DISL:MBLA:1,2014-05-01T05:00:00Z,30.4367,-88.0117,57.21,1111122 
DISL,ioos:station:DISL:MBLA:1,2014-05-01T05:30:00Z,30.4367,-88.0117,66.06,1111122 
DISL,ioos:station:DISL:MBLA:1,2014-05-01T06:00:00Z,30.4367,-88.0117,63.56,1111122 
DISL,ioos:station:DISL:MBLA:1,2014-05-01T06:30:00Z,30.4367,-88.0117,64.24,1111122 
DISL,ioos:station:DISL:MBLA:1,2014-05-01T07:00:00Z,30.4367,-88.0117,63.5,1111122 
DISL,ioos:station:DISL:MBLA:1,2014-05-01T07:30:00Z,30.4367,-88.0117,62.96,1111122 
DISL,ioos:station:DISL:MBLA:1,2014-05-01T08:00:00Z,30.4367,-88.0117,66.32,1111122 
DISL,ioos:station:DISL:MBLA:1,2014-05-01T08:30:00Z,30.4367,-88.0117,66.21,1111122 
DISL,ioos:station:DISL:MBLA:1,2014-05-01T09:00:00Z,30.4367,-88.0117,68.59,1111122 
DISL,ioos:station:DISL:MBLA:1,2014-05-01T09:30:00Z,30.4367,-88.0117,67.82,1111122 
DISL,ioos:station:DISL:MBLA:1,2014-05-01T10:00:00Z,30.4367,-88.0117,68.06,1111122 
DISL,ioos:station:DISL:MBLA:1,2014-05-01T10:30:00Z,30.4367,-88.0117,68.09,1111122 
DISL,ioos:station:DISL:MBLA:1,2014-05-01T11:00:00Z,30.4367,-88.0117,66.53,1111122 
DISL,ioos:station:DISL:MBLA:1,2014-05-01T11:30:00Z,30.4367,-88.0117,68.84,1111122 
DISL,ioos:station:DISL:MBLA:1,2014-05-01T12:00:00Z,30.4367,-88.0117,71.62,1111122 
DISL,ioos:station:DISL:MBLA:1,2014-05-01T12:30:00Z,30.4367,-88.0117,68.24,1111122 
DISL,ioos:station:DISL:MBLA:1,2014-05-01T13:00:00Z,30.4367,-88.0117,65.22,1111122 
DISL,ioos:station:DISL:MBLA:1,2014-05-01T13:30:00Z,30.4367,-88.0117,62.88,1111122 
DISL,ioos:station:DISL:MBLA:1,2014-05-01T14:00:00Z,30.4367,-88.0117,63.76,1111122 
DISL,ioos:station:DISL:MBLA:1,2014-05-01T14:30:00Z,30.4367,-88.0117,66.44,1111122 
DISL,ioos:station:DISL:MBLA:1,2014-05-01T15:00:00Z,30.4367,-88.0117,65.96,1111122 
DISL,ioos:station:DISL:MBLA:1,2014-05-01T15:30:00Z,30.4367,-88.0117,67.34,1111122 
DISL,ioos:station:DISL:MBLA:1,2014-05-01T16:00:00Z,30.4367,-88.0117,58.56,1111122 
DISL,ioos:station:DISL:MBLA:1,2014-05-01T16:30:00Z,30.4367,-88.0117,58.9,1111122 
DISL,ioos:station:DISL:MBLA:1,2014-05-01T17:00:00Z,30.4367,-88.0117,55.07,1111122 
DISL,ioos:station:DISL:MBLA:1,2014-05-01T17:30:00Z,30.4367,-88.0117,57.6,1111122 
DISL,ioos:station:DISL:MBLA:1,2014-05-01T18:00:00Z,30.4367,-88.0117,53.26,1111122 
DISL,ioos:station:DISL:MBLA:1,2014-05-01T18:30:00Z,30.4367,-88.0117,51.13,1111122 
DISL,ioos:station:DISL:MBLA:1,2014-05-01T19:00:00Z,30.4367,-88.0117,47.73,1111122 
DISL,ioos:station:DISL:MBLA:1,2014-05-01T19:30:00Z,30.4367,-88.0117,48.43,1111122 
DISL,ioos:station:DISL:MBLA:1,2014-05-01T20:00:00Z,30.4367,-88.0117,51.99,1111122 
DISL,ioos:station:DISL:MBLA:1,2014-05-01T20:30:00Z,30.4367,-88.0117,49.48,1111122 
DISL,ioos:station:DISL:MBLA:1,2014-05-01T21:00:00Z,30.4367,-88.0117,49.35,1111122 
DISL,ioos:station:DISL:MBLA:1,2014-05-01T21:30:00Z,30.4367,-88.0117,48.25,1111122 
DISL,ioos:station:DISL:MBLA:1,2014-05-01T22:00:00Z,30.4367,-88.0117,51.3,1111122 
DISL,ioos:station:DISL:MBLA:1,2014-05-01T22:30:00Z,30.4367,-88.0117,41.95,1111122 
DISL,ioos:station:DISL:MBLA:1,2014-05-01T23:00:00Z,30.4367,-88.0117,44.93,1111122 
DISL,ioos:station:DISL:MBLA:1,2014-05-01T23:30:00Z,30.4367,-88.0117,57.97,1111122 
DISL,ioos:station:DISL:MBLA:1,2014-05-02T00:00:00Z,30.4367,-88.0117,61.1,1111122 
DISL,ioos:station:DISL:MBLA:1,2014-05-02T00:30:00Z,30.4367,-88.0117,59.65,1111122 
DISL,ioos:station:DISL:MBLA:1,2014-05-02T01:00:00Z,30.4367,-88.0117,60.37,1111122 
DISL,ioos:station:DISL:MBLA:1,2014-05-02T01:30:00Z,30.4367,-88.0117,65.56,1111122 
DISL,ioos:station:DISL:MBLA:1,2014-05-02T02:00:00Z,30.4367,-88.0117,68.24,1111122 
DISL,ioos:station:DISL:MBLA:1,2014-05-02T02:30:00Z,30.4367,-88.0117,69.88,1111122 
DISL,ioos:station:DISL:MBLA:1,2014-05-02T03:00:00Z,30.4367,-88.0117,67.6,1111122 
DISL,ioos:station:DISL:MBLA:1,2014-05-02T03:30:00Z,30.4367,-88.0117,66.62,1111122 
DISL,ioos:station:DISL:MBLA:1,2014-05-02T04:00:00Z,30.4367,-88.0117,65.74,1111122 
DISL,ioos:station:DISL:MBLA:1,2014-05-02T04:30:00Z,30.4367,-88.0117,64.04,1111122 
DISL,ioos:station:DISL:MBLA:1,2014-05-02T05:00:00Z,30.4367,-88.0117,64.93,1111122 
DISL,ioos:station:DISL:MBLA:1,2014-05-02T05:30:00Z,30.4367,-88.0117,63.67,1111122 
DISL,ioos:station:DISL:MBLA:1,2014-05-02T06:00:00Z,30.4367,-88.0117,61.87,1111122 
DISL,ioos:station:DISL:MBLA:1,2014-05-02T06:30:00Z,30.4367,-88.0117,61.94,1111122 
DISL,ioos:station:DISL:MBLA:1,2014-05-02T07:00:00Z,30.4367,-88.0117,65.54,1111122 
DISL,ioos:station:DISL:MBLA:1,2014-05-02T07:30:00Z,30.4367,-88.0117,60.28,1111122 
DISL,ioos:station:DISL:MBLA:1,2014-05-02T08:00:00Z,30.4367,-88.0117,66.79,1111122 
DISL,ioos:station:DISL:MBLA:1,2014-05-02T08:30:00Z,30.4367,-88.0117,65.77,1111122 
DISL,ioos:station:DISL:MBLA:1,2014-05-02T09:00:00Z,30.4367,-88.0117,63.06,1111122 
DISL,ioos:station:DISL:MBLA:1,2014-05-02T09:30:00Z,30.4367,-88.0117,70.11,1111122 
DISL,ioos:station:DISL:MBLA:1,2014-05-02T10:00:00Z,30.4367,-88.0117,71.2,1111122 
DISL,ioos:station:DISL:MBLA:1,2014-05-02T10:30:00Z,30.4367,-88.0117,69.1,1111122 
DISL,ioos:station:DISL:MBLA:1,2014-05-02T11:00:00Z,30.4367,-88.0117,63.91,1111122 
DISL,ioos:station:DISL:MBLA:1,2014-05-02T11:30:00Z,30.4367,-88.0117,59.98,1111122 
DISL,ioos:station:DISL:MBLA:1,2014-05-02T12:00:00Z,30.4367,-88.0117,60.48,1111122 
DISL,ioos:station:DISL:MBLA:1,2014-05-02T12:30:00Z,30.4367,-88.0117,64.55,1111122 
DISL,ioos:station:DISL:MBLA:1,2014-05-02T13:00:00Z,30.4367,-88.0117,64.38,1111122 
DISL,ioos:station:DISL:MBLA:1,2014-05-02T13:30:00Z,30.4367,-88.0117,65.66,1111122 
DISL,ioos:station:DISL:MBLA:1,2014-05-02T14:00:00Z,30.4367,-88.0117,64.72,1111122 
DISL,ioos:station:DISL:MBLA:1,2014-05-02T14:30:00Z,30.4367,-88.0117,60.85,1111122 
DISL,ioos:station:DISL:MBLA:1,2014-05-02T15:00:00Z,30.4367,-88.0117,57.21,1111122 
DISL,ioos:station:DISL:MBLA:1,2014-05-02T15:30:00Z,30.4367,-88.0117,50.16,1111122 
DISL,ioos:station:DISL:MBLA:1,2014-05-02T16:00:00Z,30.4367,-88.0117,49.75,1111122 
DISL,ioos:station:DISL:MBLA:1,2014-05-02T16:30:00Z,30.4367,-88.0117,46.73,1111122 
DISL,ioos:station:DISL:MBLA:1,2014-05-02T17:00:00Z,30.4367,-88.0117,47.4,1111122 
DISL,ioos:station:DISL:MBLA:1,2014-05-02T17:30:00Z,30.4367,-88.0117,43.58,1111122 
DISL,ioos:station:DISL:MBLA:1,2014-05-02T18:00:00Z,30.4367,-88.0117,38.46,1111122 
DISL,ioos:station:DISL:MBLA:1,2014-05-02T18:30:00Z,30.4367,-88.0117,34.66,1111122 
DISL,ioos:station:DISL:MBLA:1,2014-05-02T19:00:00Z,30.4367,-88.0117,33.91,1111122 
DISL,ioos:station:DISL:MBLA:1,2014-05-02T19:30:00Z,30.4367,-88.0117,34.52,1111122 
DISL,ioos:station:DISL:MBLA:1,2014-05-02T20:00:00Z,30.4367,-88.0117,38.61,1111122 
DISL,ioos:station:DISL:MBLA:1,2014-05-02T20:30:00Z,30.4367,-88.0117,38.31,1111122 
DISL,ioos:station:DISL:MBLA:1,2014-05-02T21:00:00Z,30.4367,-88.0117,45.54,1111122 
DISL,ioos:station:DISL:MBLA:1,2014-05-02T21:30:00Z,30.4367,-88.0117,51.33,1111122 
DISL,ioos:station:DISL:MBLA:1,2014-05-02T22:00:00Z,30.4367,-88.0117,51.74,1111122 
DISL,ioos:station:DISL:MBLA:1,2014-05-02T22:30:00Z,30.4367,-88.0117,59.0,1111122 
DISL,ioos:station:DISL:MBLA:1,2014-05-02T23:00:00Z,30.4367,-88.0117,57.41,1111122 
DISL,ioos:station:DISL:MBLA:1,2014-05-02T23:30:00Z,30.4367,-88.0117,60.26,1111122 
DISL,ioos:station:DISL:MBLA:1,2014-05-03T00:00:00Z,30.4367,-88.0117,62.09,1111122 
DISL,ioos:station:DISL:MBLA:1,2014-05-03T00:30:00Z,30.4367,-88.0117,56.8,1111122 
DISL,ioos:station:DISL:MBLA:1,2014-05-03T01:00:00Z,30.4367,-88.0117,55.82,1111122 
DISL,ioos:station:DISL:MBLA:1,2014-05-03T01:30:00Z,30.4367,-88.0117,57.35,1111122 
DISL,ioos:station:DISL:MBLA:1,2014-05-03T02:00:00Z,30.4367,-88.0117,60.29,1111122 
DISL,ioos:station:DISL:MBLA:1,2014-05-03T02:30:00Z,30.4367,-88.0117,59.75,1111122 
DISL,ioos:station:DISL:MBLA:1,2014-05-03T03:00:00Z,30.4367,-88.0117,60.02,1111122 
DISL,ioos:station:DISL:MBLA:1,2014-05-03T03:30:00Z,30.4367,-88.0117,61.07,1111122 
DISL,ioos:station:DISL:MBLA:1,2014-05-03T04:00:00Z,30.4367,-88.0117,59.35,1111122 
DISL,ioos:station:DISL:MBLA:1,2014-05-03T04:30:00Z,30.4367,-88.0117,61.31,1111122 
DISL,ioos:station:DISL:MBLA:1,2014-05-03T05:00:00Z,30.4367,-88.0117,53.18,1111122 
DISL,ioos:station:DISL:MBLA:1,2014-05-03T05:30:00Z,30.4367,-88.0117,62.19,1111122 
DISL,ioos:station:DISL:MBLA:1,2014-05-03T06:00:00Z,30.4367,-88.0117,65.11,1111122 
DISL,ioos:station:DISL:MBLA:1,2014-05-03T06:30:00Z,30.4367,-88.0117,59.92,1111122 
DISL,ioos:station:DISL:MBLA:1,2014-05-03T07:00:00Z,30.4367,-88.0117,57.39,1111122 
DISL,ioos:station:DISL:MBLA:1,2014-05-03T07:30:00Z,30.4367,-88.0117,57.05,1111122 
DISL,ioos:station:DISL:MBLA:1,2014-05-03T08:00:00Z,30.4367,-88.0117,60.68,1111122 
DISL,ioos:station:DISL:MBLA:1,2014-05-03T08:30:00Z,30.4367,-88.0117,55.93,1111122 
DISL,ioos:station:DISL:MBLA:1,2014-05-03T09:00:00Z,30.4367,-88.0117,61.36,1111122 
DISL,ioos:station:DISL:MBLA:1,2014-05-03T09:30:00Z,30.4367,-88.0117,62.21,1111122 
DISL,ioos:station:DISL:MBLA:1,2014-05-03T10:00:00Z,30.4367,-88.0117,64.42,1111122 
DISL,ioos:station:DISL:MBLA:1,2014-05-03T10:30:00Z,30.4367,-88.0117,64.32,1111122 
DISL,ioos:station:DISL:MBLA:1,2014-05-03T11:00:00Z,30.4367,-88.0117,57.64,1111122 
DISL,ioos:station:DISL:MBLA:1,2014-05-03T11:30:00Z,30.4367,-88.0117,59.33,1111122 
DISL,ioos:station:DISL:MBLA:1,2014-05-03T12:00:00Z,30.4367,-88.0117,59.09,1111122 
DISL,ioos:station:DISL:MBLA:1,2014-05-03T12:30:00Z,30.4367,-88.0117,53.06,1111122 
DISL,ioos:station:DISL:MBLA:1,2014-05-03T13:00:00Z,30.4367,-88.0117,52.27,1111122 
DISL,ioos:station:DISL:MBLA:1,2014-05-03T13:30:00Z,30.4367,-88.0117,54.03,1111122 
DISL,ioos:station:DISL:MBLA:1,2014-05-03T14:00:00Z,30.4367,-88.0117,49.08,1111122 
DISL,ioos:station:DISL:MBLA:1,2014-05-03T14:30:00Z,30.4367,-88.0117,46.7,1111122 
DISL,ioos:station:DISL:MBLA:1,2014-05-03T15:00:00Z,30.4367,-88.0117,44.76,1111122 
DISL,ioos:station:DISL:MBLA:1,2014-05-03T15:30:00Z,30.4367,-88.0117,42.66,1111122 
DISL,ioos:station:DISL:MBLA:1,2014-05-03T16:00:00Z,30.4367,-88.0117,39.64,1111122 
DISL,ioos:station:DISL:MBLA:1,2014-05-03T16:30:00Z,30.4367,-88.0117,39.57,1111122 
DISL,ioos:station:DISL:MBLA:1,2014-05-03T17:00:00Z,30.4367,-88.0117,50.55,1111122 
DISL,ioos:station:DISL:MBLA:1,2014-05-03T17:30:00Z,30.4367,-88.0117,47.3,1111122 
DISL,ioos:station:DISL:MBLA:1,2014-05-03T18:00:00Z,30.4367,-88.0117,40.35,1111122 
DISL,ioos:station:DISL:MBLA:1,2014-05-03T18:30:00Z,30.4367,-88.0117,46.82,1111122 
DISL,ioos:station:DISL:MBLA:1,2014-05-03T19:00:00Z,30.4367,-88.0117,46.21,1111122 
DISL,ioos:station:DISL:MBLA:1,2014-05-03T19:30:00Z,30.4367,-88.0117,46.72,1111122 
DISL,ioos:station:DISL:MBLA:1,2014-05-03T20:00:00Z,30.4367,-88.0117,55.23,1111122 
DISL,ioos:station:DISL:MBLA:1,2014-05-03T20:30:00Z,30.4367,-88.0117,48.15,1111122 
DISL,ioos:station:DISL:MBLA:1,2014-05-03T21:00:00Z,30.4367,-88.0117,46.35,1111122 
DISL,ioos:station:DISL:MBLA:1,2014-05-03T21:30:00Z,30.4367,-88.0117,52.14,1111122 
DISL,ioos:station:DISL:MBLA:1,2014-05-03T22:00:00Z,30.4367,-88.0117,56.01,1111122 
DISL,ioos:station:DISL:MBLA:1,2014-05-03T22:30:00Z,30.4367,-88.0117,58.0,1111122 
DISL,ioos:station:DISL:MBLA:1,2014-05-03T23:00:00Z,30.4367,-88.0117,60.92,1111122 
DISL,ioos:station:DISL:MBLA:1,2014-05-03T23:30:00Z,30.4367,-88.0117,51.16,1111122 
DISL,ioos:station:DISL:MBLA:1,2014-05-04T00:00:00Z,30.4367,-88.0117,58.55,1111122 
DISL,ioos:station:DISL:MBLA:1,2014-05-04T00:30:00Z,30.4367,-88.0117,58.82,1111122 
DISL,ioos:station:DISL:MBLA:1,2014-05-04T01:00:00Z,30.4367,-88.0117,62.34,1111122 
DISL,ioos:station:DISL:MBLA:1,2014-05-04T01:30:00Z,30.4367,-88.0117,72.03,1111122 
DISL,ioos:station:DISL:MBLA:1,2014-05-04T02:00:00Z,30.4367,-88.0117,74.45,1111122 
DISL,ioos:station:DISL:MBLA:1,2014-05-04T02:30:00Z,30.4367,-88.0117,74.43,1111122 
DISL,ioos:station:DISL:MBLA:1,2014-05-04T03:00:00Z,30.4367,-88.0117,70.8,1111122 
DISL,ioos:station:DISL:MBLA:1,2014-05-04T03:30:00Z,30.4367,-88.0117,70.87,1111122 
DISL,ioos:station:DISL:MBLA:1,2014-05-04T04:00:00Z,30.4367,-88.0117,73.21,1111122 
DISL,ioos:station:DISL:MBLA:1,2014-05-04T04:30:00Z,30.4367,-88.0117,76.9,1111122 
DISL,ioos:station:DISL:MBLA:1,2014-05-04T05:00:00Z,30.4367,-88.0117,80.3,1111122 
DISL,ioos:station:DISL:MBLA:1,2014-05-04T05:30:00Z,30.4367,-88.0117,81.8,1111122 
DISL,ioos:station:DISL:MBLA:1,2014-05-04T06:00:00Z,30.4367,-88.0117,82.8,1111122 
DISL,ioos:station:DISL:MBLA:1,2014-05-04T06:30:00Z,30.4367,-88.0117,84.1,1111122 
DISL,ioos:station:DISL:MBLA:1,2014-05-04T07:00:00Z,30.4367,-88.0117,86.1,1111122 
DISL,ioos:station:DISL:MBLA:1,2014-05-04T07:30:00Z,30.4367,-88.0117,87.3,1111122 
DISL,ioos:station:DISL:MBLA:1,2014-05-04T08:00:00Z,30.4367,-88.0117,84.3,1111122 
DISL,ioos:station:DISL:MBLA:1,2014-05-04T08:30:00Z,30.4367,-88.0117,78.87,1111122 
DISL,ioos:station:DISL:MBLA:1,2014-05-04T09:00:00Z,30.4367,-88.0117,76.7,1111122 
DISL,ioos:station:DISL:MBLA:1,2014-05-04T09:30:00Z,30.4367,-88.0117,75.92,1111122 
DISL,ioos:station:DISL:MBLA:1,2014-05-04T10:00:00Z,30.4367,-88.0117,75.72,1111122 
DISL,ioos:station:DISL:MBLA:1,2014-05-04T10:30:00Z,30.4367,-88.0117,74.64,1111122 
DISL,ioos:station:DISL:MBLA:1,2014-05-04T11:00:00Z,30.4367,-88.0117,75.56,1111122 
DISL,ioos:station:DISL:MBLA:1,2014-05-04T11:30:00Z,30.4367,-88.0117,73.69,1111122 
DISL,ioos:station:DISL:MBLA:1,2014-05-04T12:00:00Z,30.4367,-88.0117,69.93,1111122 
DISL,ioos:station:DISL:MBLA:1,2014-05-04T12:30:00Z,30.4367,-88.0117,66.84,1111122 
DISL,ioos:station:DISL:MBLA:1,2014-05-04T13:00:00Z,30.4367,-88.0117,63.72,1111122 
DISL,ioos:station:DISL:MBLA:1,2014-05-04T13:30:00Z,30.4367,-88.0117,64.66,1111122 
DISL,ioos:station:DISL:MBLA:1,2014-05-04T14:00:00Z,30.4367,-88.0117,62.79,1111122 
DISL,ioos:station:DISL:MBLA:1,2014-05-04T14:30:00Z,30.4367,-88.0117,59.8,1111122 
DISL,ioos:station:DISL:MBLA:1,2014-05-04T15:00:00Z,30.4367,-88.0117,62.17,1111122 
DISL,ioos:station:DISL:MBLA:1,2014-05-04T15:30:00Z,30.4367,-88.0117,63.8,1111122 
DISL,ioos:station:DISL:MBLA:1,2014-05-04T16:00:00Z,30.4367,-88.0117,67.93,1111122 
DISL,ioos:station:DISL:MBLA:1,2014-05-04T16:30:00Z,30.4367,-88.0117,74.2,1111122 
DISL,ioos:station:DISL:MBLA:1,2014-05-04T17:00:00Z,30.4367,-88.0117,78.91,1111122 
DISL,ioos:station:DISL:MBLA:1,2014-05-04T17:30:00Z,30.4367,-88.0117,76.3,1111122 
DISL,ioos:station:DISL:MBLA:1,2014-05-04T18:00:00Z,30.4367,-88.0117,75.22,1111122 
DISL,ioos:station:DISL:MBLA:1,2014-05-04T18:30:00Z,30.4367,-88.0117,75.39,1111122 
DISL,ioos:station:DISL:MBLA:1,2014-05-04T19:00:00Z,30.4367,-88.0117,74.57,1111122 
DISL,ioos:station:DISL:MBLA:1,2014-05-04T19:30:00Z,30.4367,-88.0117,72.64,1111122 
DISL,ioos:station:DISL:MBLA:1,2014-05-04T20:00:00Z,30.4367,-88.0117,79.45,1111122 
DISL,ioos:station:DISL:MBLA:1,2014-05-04T20:30:00Z,30.4367,-88.0117,78.54,1111122 
DISL,ioos:station:DISL:MBLA:1,2014-05-04T21:00:00Z,30.4367,-88.0117,78.67,1111122 
DISL,ioos:station:DISL:MBLA:1,2014-05-04T21:30:00Z,30.4367,-88.0117,77.38,1111122 
DISL,ioos:station:DISL:MBLA:1,2014-05-04T22:00:00Z,30.4367,-88.0117,79.96,1111122 
DISL,ioos:station:DISL:MBLA:1,2014-05-04T22:30:00Z,30.4367,-88.0117,76.44,1111122 
DISL,ioos:station:DISL:MBLA:1,2014-05-04T23:00:00Z,30.4367,-88.0117,78.27,1111122 
DISL,ioos:station:DISL:MBLA:1,2014-05-04T23:30:00Z,30.4367,-88.0117,78.2,1111122 
DISL,ioos:station:DISL:MBLA:1,2014-05-05T00:00:00Z,30.4367,-88.0117,77.69,1111122 
DISL,ioos:station:DISL:MBLA:1,2014-05-05T00:30:00Z,30.4367,-88.0117,73.79,1111122 
DISL,ioos:station:DISL:MBLA:1,2014-05-05T01:00:00Z,30.4367,-88.0117,77.66,1111122 
DISL,ioos:station:DISL:MBLA:1,2014-05-05T01:30:00Z,30.4367,-88.0117,76.06,1111122 
DISL,ioos:station:DISL:MBLA:1,2014-05-05T02:00:00Z,30.4367,-88.0117,76.88,1111122 
DISL,ioos:station:DISL:MBLA:1,2014-05-05T02:30:00Z,30.4367,-88.0117,80.8,1111122 
DISL,ioos:station:DISL:MBLA:1,2014-05-05T03:00:00Z,30.4367,-88.0117,80.5,1111122 
DISL,ioos:station:DISL:MBLA:1,2014-05-05T03:30:00Z,30.4367,-88.0117,81.8,1111122 
DISL,ioos:station:DISL:MBLA:1,2014-05-05T04:00:00Z,30.4367,-88.0117,82.2,1111122 
DISL,ioos:station:DISL:MBLA:1,2014-05-05T04:30:00Z,30.4367,-88.0117,82.3,1111122 
DISL,ioos:station:DISL:MBLA:1,2014-05-05T05:00:00Z,30.4367,-88.0117,82.3,1111122 
DISL,ioos:station:DISL:MBLA:1,2014-05-05T05:30:00Z,30.4367,-88.0117,85.5,1111122 
DISL,ioos:station:DISL:MBLA:1,2014-05-05T06:00:00Z,30.4367,-88.0117,84.3,1111122 
DISL,ioos:station:DISL:MBLA:1,2014-05-05T06:30:00Z,30.4367,-88.0117,82.9,1111122 
DISL,ioos:station:DISL:MBLA:1,2014-05-05T07:00:00Z,30.4367,-88.0117,83.5,1111122 
DISL,ioos:station:DISL:MBLA:1,2014-05-05T07:30:00Z,30.4367,-88.0117,84.2,1111122 
DISL,ioos:station:DISL:MBLA:1,2014-05-05T08:00:00Z,30.4367,-88.0117,81.5,1111122 
DISL,ioos:station:DISL:MBLA:1,2014-05-05T08:30:00Z,30.4367,-88.0117,82.6,1111122 
DISL,ioos:station:DISL:MBLA:1,2014-05-05T09:00:00Z,30.4367,-88.0117,82.3,1111122 
DISL,ioos:station:DISL:MBLA:1,2014-05-05T09:30:00Z,30.4367,-88.0117,81.8,1111122 
DISL,ioos:station:DISL:MBLA:1,2014-05-05T10:00:00Z,30.4367,-88.0117,82.4,1111122 
DISL,ioos:station:DISL:MBLA:1,2014-05-05T10:30:00Z,30.4367,-88.0117,81.1,1111122 
DISL,ioos:station:DISL:MBLA:1,2014-05-05T11:00:00Z,30.4367,-88.0117,78.36,1111122 
DISL,ioos:station:DISL:MBLA:1,2014-05-05T11:30:00Z,30.4367,-88.0117,78.19,1111122 
DISL,ioos:station:DISL:MBLA:1,2014-05-05T12:00:00Z,30.4367,-88.0117,75.07,1111122 
DISL,ioos:station:DISL:MBLA:1,2014-05-05T12:30:00Z,30.4367,-88.0117,70.46,1111122 
DISL,ioos:station:DISL:MBLA:1,2014-05-05T13:00:00Z,30.4367,-88.0117,62.25,1111122 
DISL,ioos:station:DISL:MBLA:1,2014-05-05T13:30:00Z,30.4367,-88.0117,60.75,1111122 
DISL,ioos:station:DISL:MBLA:1,2014-05-05T14:00:00Z,30.4367,-88.0117,56.21,1111122 
DISL,ioos:station:DISL:MBLA:1,2014-05-05T14:30:00Z,30.4367,-88.0117,57.09,1111122 
DISL,ioos:station:DISL:MBLA:1,2014-05-05T15:00:00Z,30.4367,-88.0117,56.02,1111122 
DISL,ioos:station:DISL:MBLA:1,2014-05-05T15:30:00Z,30.4367,-88.0117,63.71,1111122 
DISL,ioos:station:DISL:MBLA:1,2014-05-05T16:00:00Z,30.4367,-88.0117,63.58,1111122 
DISL,ioos:station:DISL:MBLA:1,2014-05-05T16:30:00Z,30.4367,-88.0117,61.19,1111122 
DISL,ioos:station:DISL:MBLA:1,2014-05-05T17:00:00Z,30.4367,-88.0117,57.29,1111122 
DISL,ioos:station:DISL:MBLA:1,2014-05-05T17:30:00Z,30.4367,-88.0117,64.92,1111122 
DISL,ioos:station:DISL:MBLA:1,2014-05-05T18:00:00Z,30.4367,-88.0117,64.75,1111122 
DISL,ioos:station:DISL:MBLA:1,2014-05-05T18:30:00Z,30.4367,-88.0117,64.48,1111122 
DISL,ioos:station:DISL:MBLA:1,2014-05-05T19:00:00Z,30.4367,-88.0117,63.83,1111122 
DISL,ioos:station:DISL:MBLA:1,2014-05-05T19:30:00Z,30.4367,-88.0117,58.75,1111122 
DISL,ioos:station:DISL:MBLA:1,2014-05-05T20:00:00Z,30.4367,-88.0117,62.44,1111122 
DISL,ioos:station:DISL:MBLA:1,2014-05-05T20:30:00Z,30.4367,-88.0117,55.18,1111122 
DISL,ioos:station:DISL:MBLA:1,2014-05-05T21:00:00Z,30.4367,-88.0117,56.5,1111122 
DISL,ioos:station:DISL:MBLA:1,2014-05-05T21:30:00Z,30.4367,-88.0117,57.98,1111122 
DISL,ioos:station:DISL:MBLA:1,2014-05-05T22:00:00Z,30.4367,-88.0117,58.9,1111122 
DISL,ioos:station:DISL:MBLA:1,2014-05-05T22:30:00Z,30.4367,-88.0117,61.37,1111122 
DISL,ioos:station:DISL:MBLA:1,2014-05-05T23:00:00Z,30.4367,-88.0117,59.44,1111122 
DISL,ioos:station:DISL:MBLA:1,2014-05-05T23:30:00Z,30.4367,-88.0117,60.32,1111122 
DISL,ioos:station:DISL:MBLA:1,2014-05-06T00:00:00Z,30.4367,-88.0117,61.75,1111122 
DISL,ioos:station:DISL:MBLA:1,2014-05-06T00:30:00Z,30.4367,-88.0117,55.22,1111122 
DISL,ioos:station:DISL:MBLA:1,2014-05-06T01:00:00Z,30.4367,-88.0117,64.92,1111122 
DISL,ioos:station:DISL:MBLA:1,2014-05-06T01:30:00Z,30.4367,-88.0117,62.82,1111122 
DISL,ioos:station:DISL:MBLA:1,2014-05-06T02:00:00Z,30.4367,-88.0117,64.71,1111122 
DISL,ioos:station:DISL:MBLA:1,2014-05-06T02:30:00Z,30.4367,-88.0117,67.19,1111122 
DISL,ioos:station:DISL:MBLA:1,2014-05-06T03:00:00Z,30.4367,-88.0117,63.33,1111122 
DISL,ioos:station:DISL:MBLA:1,2014-05-06T03:30:00Z,30.4367,-88.0117,67.86,1111122 
DISL,ioos:station:DISL:MBLA:1,2014-05-06T04:00:00Z,30.4367,-88.0117,66.14,1111122 
DISL,ioos:station:DISL:MBLA:1,2014-05-06T04:30:00Z,30.4367,-88.0117,64.92,1111122 
DISL,ioos:station:DISL:MBLA:1,2014-05-06T05:00:00Z,30.4367,-88.0117,61.94,1111122 
DISL,ioos:station:DISL:MBLA:1,2014-05-06T05:30:00Z,30.4367,-88.0117,63.87,1111122 
DISL,ioos:station:DISL:MBLA:1,2014-05-06T06:00:00Z,30.4367,-88.0117,56.58,1111122 
DISL,ioos:station:DISL:MBLA:1,2014-05-06T06:30:00Z,30.4367,-88.0117,66.45,1111122 
DISL,ioos:station:DISL:MBLA:1,2014-05-06T07:00:00Z,30.4367,-88.0117,71.7,1111122 
DISL,ioos:station:DISL:MBLA:1,2014-05-06T07:30:00Z,30.4367,-88.0117,71.57,1111122 
DISL,ioos:station:DISL:MBLA:1,2014-05-06T08:00:00Z,30.4367,-88.0117,75.6,1111122 
DISL,ioos:station:DISL:MBLA:1,2014-05-06T08:30:00Z,30.4367,-88.0117,75.88,1111122 
DISL,ioos:station:DISL:MBLA:1,2014-05-06T09:00:00Z,30.4367,-88.0117,77.13,1111122 
DISL,ioos:station:DISL:MBLA:1,2014-05-06T09:30:00Z,30.4367,-88.0117,75.41,1111122 
DISL,ioos:station:DISL:MBLA:1,2014-05-06T10:00:00Z,30.4367,-88.0117,73.51,1111122 
DISL,ioos:station:DISL:MBLA:1,2014-05-06T10:30:00Z,30.4367,-88.0117,75.61,1111122 
DISL,ioos:station:DISL:MBLA:1,2014-05-06T11:00:00Z,30.4367,-88.0117,73.61,1111122 
DISL,ioos:station:DISL:MBLA:1,2014-05-06T11:30:00Z,30.4367,-88.0117,75.55,1111122 
DISL,ioos:station:DISL:MBLA:1,2014-05-06T12:00:00Z,30.4367,-88.0117,72.6,1111122 
DISL,ioos:station:DISL:MBLA:1,2014-05-06T12:30:00Z,30.4367,-88.0117,70.69,1111122 
DISL,ioos:station:DISL:MBLA:1,2014-05-06T13:00:00Z,30.4367,-88.0117,71.46,1111122 
DISL,ioos:station:DISL:MBLA:1,2014-05-06T13:30:00Z,30.4367,-88.0117,71.76,1111122 
DISL,ioos:station:DISL:MBLA:1,2014-05-06T14:00:00Z,30.4367,-88.0117,69.32,1111122 
DISL,ioos:station:DISL:MBLA:1,2014-05-06T14:30:00Z,30.4367,-88.0117,67.53,1111122 
DISL,ioos:station:DISL:MBLA:1,2014-05-06T15:00:00Z,30.4367,-88.0117,67.63,1111122 
DISL,ioos:station:DISL:MBLA:1,2014-05-06T15:30:00Z,30.4367,-88.0117,67.63,1111122 
DISL,ioos:station:DISL:MBLA:1,2014-05-06T16:00:00Z,30.4367,-88.0117,65.36,1111122 
DISL,ioos:station:DISL:MBLA:1,2014-05-06T16:30:00Z,30.4367,-88.0117,67.9,1111122 
DISL,ioos:station:DISL:MBLA:1,2014-05-06T17:00:00Z,30.4367,-88.0117,66.03,1111122 
DISL,ioos:station:DISL:MBLA:1,2014-05-06T17:30:00Z,30.4367,-88.0117,64.92,1111122 
DISL,ioos:station:DISL:MBLA:1,2014-05-06T18:00:00Z,30.4367,-88.0117,63.83,1111122 
DISL,ioos:station:DISL:MBLA:1,2014-05-06T18:30:00Z,30.4367,-88.0117,58.89,1111122 
DISL,ioos:station:DISL:MBLA:1,2014-05-06T19:00:00Z,30.4367,-88.0117,62.68,1111122 
DISL,ioos:station:DISL:MBLA:1,2014-05-06T19:30:00Z,30.4367,-88.0117,58.89,1111122 
DISL,ioos:station:DISL:MBLA:1,2014-05-06T20:00:00Z,30.4367,-88.0117,61.19,1111122 
DISL,ioos:station:DISL:MBLA:1,2014-05-06T20:30:00Z,30.4367,-88.0117,61.8,1111122 
DISL,ioos:station:DISL:MBLA:1,2014-05-06T21:00:00Z,30.4367,-88.0117,61.93,1111122 
DISL,ioos:station:DISL:MBLA:1,2014-05-06T21:30:00Z,30.4367,-88.0117,62.15,1111122 
DISL,ioos:station:DISL:MBLA:1,2014-05-06T22:00:00Z,30.4367,-88.0117,62.05,1111122 
DISL,ioos:station:DISL:MBLA:1,2014-05-06T22:30:00Z,30.4367,-88.0117,62.18,1111122 
DISL,ioos:station:DISL:MBLA:1,2014-05-06T23:00:00Z,30.4367,-88.0117,60.86,1111122 
DISL,ioos:station:DISL:MBLA:1,2014-05-06T23:30:00Z,30.4367,-88.0117,60.49,1111122 
DISL,ioos:station:DISL:MBLA:1,2014-05-07T00:00:00Z,30.4367,-88.0117,59.58,1111122 